Location: Fouquenies
(49.4624°N, 2.0492°E)
Time: 22:49:43
(UTC+00:00)

Cosmos 1190 Rocket - Pass Details

Date: 03 February 2023
Orbit: 756 x 778 km, 74.1° (Epoch: 01 April)

Event Time Altitude Azimuth Distance (km) Brightness Sun altitude
Rises 17:33:18 0° 188° (S) 3,248 7.6 -7.3°
Reaches altitude 10° 17:35:43 10° 184° (S) 2,323 6.8 -7.7°
Maximum altitude 17:40:52 56° 107° (ESE) 923 4.2 -8.5°
Drops below altitude 10° 17:46:02 10° 31° (NNE) 2,330 6.1 -9.3°
Sets 17:48:27 0° 27° (NNE) 3,258 6.9 -9.7°
Enters shadow 17:48:40 -1° 27° (NNE) 3,342 6.9 -9.7°
